Regional Weather Roundup
Issued by NWS Kansas City/Pleasant Hill, MO

Home | Current Version | Previous Version | Graphics & Text | Print | Product List | Glossary Off
Versions: 1 2 3 4 5 6 7 8 9 10 11 12 13 14 15 16 17 18 19 20 21 22 23 24 25 26 27 28 29 30 31 32 33 34 35 36 37 38 39 40 41 42 43 44 45 46 47 48 49 50

000
ASUS43 KEAX 250610
RWREAX

WEATHER ROUNDUP FOR EASTERN KANSAS AND NORTHWEST MISSOURI
NATIONAL WEATHER SERVICE KANSAS CITY/PLEASANT HILL MO
100 AM CDT SUN SEP 25 2016

KSZ040-057-103>105-MOZ028-029-037-043-250700-
...KANSAS CITY METROPOLITAN AREA...

CITY           SKY/WX    TMP DP  RH WIND       PRES   REMARKS
K.C. INTL      RAIN      69  66  90 SE3       30.02S
6HR MIN TEMP:  68; 6HR MAX TEMP:  82; 6HR PCP:  0.41;

K.C. DOWNTOWN  CLOUDY    71  68  90 N3        30.01F
6HR MIN TEMP:  71; 6HR MAX TEMP:  85; 6HR PCP:  0.11;

LEES SUMMIT    CLOUDY    72  66  81 NW8       30.03R
6HR MIN TEMP:  72; 6HR MAX TEMP:  83;

OLATHE - IXD   HVY RAIN  69  69 100 SW5       30.05R FOG
6HR MIN TEMP:  69; 6HR MAX TEMP:  81; 6HR PCP:  0.09;

OLATHE - OJC   CLOUDY    69  67  93 W3        30.04R
6HR MIN TEMP:  69; 6HR MAX TEMP:  81; 6HR PCP:  0.05;

LAWRENCE       LGT RAIN  68  68 100 E6        30.00F

$$

MOZ001>008-011>017-020>025-030>033-038>040-044>046-053-054-250700-
...NORTHERN AND CENTRAL MISSOURI...

CITY           SKY/WX    TMP DP  RH WIND       PRES   REMARKS
ST. JOSEPH     LGT RAIN  69  67  93 E7        29.98F
6HR MIN TEMP:  69; 6HR MAX TEMP:  74; 6HR PCP:  1.04;

MOSBY          CLOUDY    72  68  88 NW7       30.01F
WHITEMAN AFB   CLOUDY    75  73  94 S6        30.00R
6HR MIN TEMP:  73; 6HR MAX TEMP:  81;

CLINTON        MOCLDY    75  70  83 CALM      30.02R
SEDALIA        CLOUDY    75  69  81 S6        30.03R
6HR MIN TEMP:  74; 6HR MAX TEMP:  82;

WARSAW         NOT AVBL
CHILLICOTHE      N/A     74  70  87 CALM      30.02R
6HR MIN TEMP:  74; 6HR MAX TEMP:  81;

KIRKSVILLE     CLOUDY    72  67  84 S8        30.03S
6HR MIN TEMP:  72; 6HR MAX TEMP:  78;


$$

MOZ041-047>049-056>058-063>065-088>090-097-250700-
...EASTERN AND SOUTHERN MISSOURI...

CITY           SKY/WX    TMP DP  RH WIND       PRES   REMARKS
ST. LOUIS INTL CLEAR     76  67  73 SE7       30.07S
6HR MIN TEMP:  75; 6HR MAX TEMP:  87;

SPIRIT OF STL  CLEAR     69  68  96 CALM      30.04F FOG
COLUMBIA       CLEAR     73  69  87 SE6       30.04F
JEFFERSON CITY CLEAR     73  69  87 E5        30.02F
ROLLA          CLEAR     71  67  87 SE7       30.06S
OSAGE BEACH    CLEAR     72  68  87 S6        30.05S
SPRINGFIELD    CLEAR     73  66  78 SE8       30.05R
BRANSON        CLEAR     73  68  83 S5        30.07S
JOPLIN         CLOUDY    73  66  78 NW13G18     N/A
WEST PLAINS    CLEAR     69  65  86 CALM      30.09S

$$

IAZ060-094-KSZ022-034>040-054-083-096-NEZ052-066-093-250700-
...KANSAS...SOUTHEAST NEBRASKA AND IOWA...

CITY           SKY/WX    TMP DP  RH WIND       PRES   REMARKS
TOPEKA         RAIN      68  67  96 S5        30.01R
6HR MIN TEMP:  68; 6HR MAX TEMP:  72; 6HR PCP:  1.94;

MANHATTAN      CLOUDY    70  68  93 SW9       30.01R
EMPORIA        LGT RAIN  68  67  96 SW7       30.06R
CHANUTE        LGT RAIN  68  67  96 SE7       30.05S
WICHITA        LGT RAIN  68  68 100 E7        30.02S
OMAHA          LGT RAIN  69  66  90 SE7       29.95F
LINCOLN        HVY RAIN  69  68  96 W18G25    29.99R FOG
FALLS CITY     CLOUDY    69  69 100 SE9G18    29.96S
LAMONI         LGT RAIN  69  68  96 E7        30.01F
DES MOINES     LGT RAIN  70  69  97 SE10      30.00S

$$




USA.gov is the U.S. government's official web portal to all federal, state and local government web resources and services.